Stations météo

réclame
Mon MeteoGroup
Ponferrada, Espagne (8053): Température de l'air & dewpoint: 19.11.2017 02:00:00 - 25.11.2017 02:00:00 (CET)Ponferrada, Espagne (8053): Vitesse du vent: 19.11.2017 02:00:00 - 25.11.2017 02:00:00 (CET)Ponferrada, Espagne (8053): Direction du vent: 19.11.2017 02:00:00 - 25.11.2017 02:00:00 (CET)Ponferrada, Espagne (8053): reduced air pressure: 19.11.2017 02:00:00 - 25.11.2017 02:00:00 (CET)Ponferrada, Espagne (8053): visibility: 19.11.2017 02:00:00 - 25.11.2017 02:00:00 (CET)Ponferrada, Espagne (8053): Quantités de précipitations: 19.11.2017 02:00:00 - 25.11.2017 02:00:00 (CET)
Date & Time tt [°C] td [°C] ff [km/h] ff [knt] dd ppp [hPa] vv [km] rr [mm]
25.11.2017 02:00:00 10,8 9,7 5 3 WSW 1020,0 5 2,0
25.11.2017 01:00:00 11,4 10,6 2 1 NNW 1018,7 14 -
25.11.2017 00:00:00 11,4 11,1 4 2 WSW 1017,9 3,4 5,0
24.11.2017 23:00:00 11,4 11,1 5 3 ESE 1017,0 3,7 3,0
24.11.2017 22:00:00 11,3 11,0 5 3 SE 1016,7 4,0 -
24.11.2017 21:00:00 11,6 11,3 5 3 W 1016,5 0,5 1,0
24.11.2017 20:00:00 - - - - - - - -
24.11.2017 19:00:00 - - - - - - - -
24.11.2017 18:00:00 - - - - - - - -
24.11.2017 17:00:00 12,3 11,5 2 1 ENE 1016,3 3,5 2,0
24.11.2017 16:00:00 12,3 11,4 4 2 SSW 1016,4 10 -
24.11.2017 15:00:00 12,2 11,3 4 2 WNW 1016,5 6 0,6
24.11.2017 14:00:00 11,9 11,1 2 1 WNW 1017,2 2,5 0,8
24.11.2017 13:00:00 11,8 10,7 2 1 NW 1017,4 6 -
24.11.2017 12:00:00 11,6 10,7 4 2 WSW 1018,0 8 0,2
24.11.2017 11:00:00 11,2 10,4 2 1 W 1018,1 7 0,2
24.11.2017 10:00:00 10,7 10,1 0 0 N 1017,8 2,7 -
24.11.2017 09:00:00 11,6 10,2 2 1 E 1017,1 2,2 0,8
24.11.2017 08:00:00 10,6 10,0 2 1 S 1016,9 3,0 0,8
24.11.2017 07:00:00 10,5 9,9 0 0 N 1016,6 10 -
24.11.2017 06:00:00 10,5 9,9 5 3 W 1016,2 2,8 3,0
24.11.2017 05:00:00 10,7 9,9 4 2 S 1016,0 3,2 3,0
24.11.2017 04:00:00 10,9 10,0 4 2 WNW 1015,9 3,0 -
24.11.2017 03:00:00 11,1 9,7 4 2 ESE 1015,1 14 0,0
24.11.2017 02:00:00 11,6 9,7 2 1 SSE 1015,2 18 0,0
24.11.2017 01:00:00 11,7 9,4 4 2 NNE 1016,5 11 -
24.11.2017 00:00:00 12,8 8,5 5 3 W 1016,3 18 0,0
23.11.2017 23:00:00 13,0 8,7 5 3 S 1015,3 19 0,0
23.11.2017 22:00:00 12,9 8,4 5 3 SSE 1015,7 19 -
23.11.2017 21:00:00 13,2 7,6 2 1 NNE 1015,5 17 0,0
23.11.2017 20:00:00 13,8 7,6 4 2 E 1015,1 18 0,0
23.11.2017 19:00:00 16,4 7,1 2 1 NNE 1013,8 13 -
23.11.2017 18:00:00 17,0 8,2 9 5 W 1013,4 0,8 0,0
23.11.2017 17:00:00 17,6 10,2 13 7 W 1013,0 1,4 0,0
23.11.2017 16:00:00 18,1 8,9 4 2 SE 1012,2 15 -
23.11.2017 15:00:00 18,6 9,1 5 3 W 1012,3 19 0,0
23.11.2017 14:00:00 18,7 8,1 5 3 WNW 1012,7 20 0,0
23.11.2017 13:00:00 17,5 8,6 5 3 E 1013,1 20 -
23.11.2017 12:00:00 15,7 10,2 2 1 S 1013,7 20 0,0
23.11.2017 11:00:00 14,0 9,4 4 2 SSE 1014,0 19 0,0
23.11.2017 10:00:00 11,4 8,6 5 3 SSE 1014,1 19 -
23.11.2017 09:00:00 10,3 7,9 2 1 W 1013,3 18 0,0
23.11.2017 08:00:00 10,2 7,8 4 2 SSW 1012,5 20 0,0
23.11.2017 07:00:00 10,3 8,6 2 1 N 1011,9 20 -
23.11.2017 06:00:00 10,6 8,5 4 2 SW 1010,9 15 0,0
23.11.2017 05:00:00 11,0 8,4 4 2 SSE 1010,1 15 0,2
23.11.2017 04:00:00 11,5 8,7 2 1 NNW 1009,8 16 -
23.11.2017 03:00:00 13,4 6,7 5 3 SE 1008,8 19 0,0
23.11.2017 02:00:00 14,9 5,1 8 4 NW 1008,4 1,9 0,0
23.11.2017 01:00:00 15,8 3,6 9 5 W 1008,2 2,2 -
23.11.2017 00:00:00 15,9 5,2 13 7 W 1008,6 1,8 0,0
22.11.2017 23:00:00 15,9 4,0 13 7 W 1008,2 14 0,0
22.11.2017 22:00:00 15,7 1,8 9 5 W 1008,1 20 -
22.11.2017 21:00:00 16,5 0,6 13 7 W 1007,8 20 0,0
22.11.2017 20:00:00 17,1 0,7 11 6 WSW 1006,9 18 0,0
22.11.2017 19:00:00 17,4 2,2 11 6 SSW 1006,7 20 -
22.11.2017 18:00:00 17,5 2,6 13 7 S 1006,5 20 0,0
22.11.2017 17:00:00 17,8 3,3 13 7 S 1006,7 20 0,0
22.11.2017 16:00:00 15,8 2,9 5 3 W 1008,3 19 -
22.11.2017 15:00:00 11,2 2,5 5 3 SE 1010,3 16 0,0
22.11.2017 14:00:00 8,6 0,8 4 2 SW 1012,2 13 0,0
22.11.2017 13:00:00 7,9 0,6 5 3 NNW 1013,1 20 -
22.11.2017 12:00:00 6,6 -0,4 4 2 SE 1015,5 19 0,0
22.11.2017 11:00:00 4,6 -1,0 2 1 ESE 1015,6 18 0,0
22.11.2017 10:00:00 1,0 -1,9 4 2 ESE 1017,2 15 -
22.11.2017 09:00:00 -1,0 -2,4 4 2 ESE 1018,1 14 0,0
22.11.2017 08:00:00 -1,0 -2,6 4 2 NW 1018,4 - 0,0
22.11.2017 07:00:00 -1,2 -3,1 4 2 SSE 1018,7 15 -
22.11.2017 06:00:00 -0,3 -2,7 2 1 N 1018,7 16 0,0
22.11.2017 05:00:00 -0,3 -2,7 2 1 SSE 1019,1 20 0,0
22.11.2017 04:00:00 0,4 -2,8 5 3 WNW 1019,4 17 -
22.11.2017 03:00:00 0,8 -2,1 2 1 WSW 1019,8 18 0,0
22.11.2017 02:00:00 1,2 -2,2 2 1 NNW 1020,2 14 0,0
22.11.2017 01:00:00 1,7 -2,3 4 2 SE 1020,6 17 -
22.11.2017 00:00:00 2,1 -1,9 2 1 E 1020,9 19 0,0
21.11.2017 23:00:00 3,6 -1,4 4 2 WNW 1020,6 14 0,0
21.11.2017 22:00:00 3,5 -1,5 4 2 E 1021,2 11 -
21.11.2017 21:00:00 4,2 -1,4 4 2 SSE 1020,9 20 0,0
21.11.2017 20:00:00 5,7 -1,2 4 2 SSE 1020,7 18 0,0
21.11.2017 19:00:00 8,1 -1,2 4 2 WNW 1020,0 12 -
21.11.2017 18:00:00 11,4 -0,1 2 1 E 1019,2 14 0,0
21.11.2017 17:00:00 14,4 -0,9 4 2 WSW 1018,7 20 0,0
21.11.2017 16:00:00 14,6 -0,7 5 3 W 1018,9 20 -
21.11.2017 15:00:00 13,7 -1,5 4 2 W 1019,9 20 0,0
21.11.2017 14:00:00 11,3 -0,8 5 3 W 1021,9 20 0,0
21.11.2017 13:00:00 8,5 -0,8 5 3 WSW 1023,6 20 -
21.11.2017 12:00:00 6,6 -1,6 4 2 WNW 1025,3 20 0,0
21.11.2017 11:00:00 3,1 -2,0 4 2 W 1026,9 19 0,0
21.11.2017 10:00:00 0,4 -2,8 2 1 W 1027,7 20 -
21.11.2017 09:00:00 -2,7 -4,0 2 1 E 1028,4 18 0,0
21.11.2017 08:00:00 -2,7 -4,1 2 1 ESE 1028,2 20 0,0
21.11.2017 07:00:00 -2,3 -4,0 2 1 E 1027,9 20 -
21.11.2017 06:00:00 -2,0 -3,9 2 1 N 1027,5 20 0,0
21.11.2017 05:00:00 -1,3 -3,2 4 2 ESE 1027,1 20 0,0
21.11.2017 04:00:00 -0,7 -3,2 2 1 ENE 1027,2 20 -
21.11.2017 03:00:00 -0,2 -3,1 2 1 E 1027,1 20 0,0
21.11.2017 02:00:00 1,1 -2,3 2 1 WNW 1026,7 19 0,0
21.11.2017 01:00:00 1,1 -2,5 4 2 ESE 1027,2 19 -
21.11.2017 00:00:00 1,8 -2,3 2 1 SE 1026,8 20 0,0
20.11.2017 23:00:00 2,7 -1,5 2 1 ENE 1026,4 17 0,0
20.11.2017 22:00:00 3,8 -1,2 2 1 SE 1026,2 17 -
20.11.2017 21:00:00 4,6 -1,2 2 1 N 1025,7 13 0,0
20.11.2017 20:00:00 5,9 -0,8 2 1 SSE 1025,0 16 0,0
20.11.2017 19:00:00 7,9 -0,6 2 1 E 1023,9 16 -
20.11.2017 18:00:00 11,7 1,0 4 2 E 1022,5 14 0,0
20.11.2017 17:00:00 14,9 0,3 4 2 WNW 1021,7 19 0,0
20.11.2017 16:00:00 15,1 0,1 4 2 WSW 1021,6 18 -
20.11.2017 15:00:00 14,1 0,3 4 2 WNW 1022,5 20 0,0
20.11.2017 14:00:00 12,1 0,2 5 3 WNW 1023,7 20 0,0
20.11.2017 13:00:00 10,4 0,7 2 1 S 1025,2 20 -
20.11.2017 12:00:00 6,5 0,4 2 1 W 1027,6 20 0,0
20.11.2017 11:00:00 4,2 -0,6 5 3 W 1028,6 19 0,0
20.11.2017 10:00:00 2,5 -1,3 2 1 SSE 1029,2 20 -
20.11.2017 09:00:00 -1,2 -2,8 2 1 NNW 1029,8 20 0,0
20.11.2017 08:00:00 -1,7 -3,1 2 1 E 1029,6 8 0,0
20.11.2017 07:00:00 -1,2 -2,8 2 1 SE 1028,8 12 -
20.11.2017 06:00:00 -0,8 -2,7 4 2 E 1028,4 8 0,0
20.11.2017 05:00:00 0,1 -2,1 2 1 W 1027,7 9 0,0
20.11.2017 04:00:00 0,4 -1,7 2 1 SSE 1027,8 9 -
20.11.2017 03:00:00 0,9 -1,7 2 1 E 1027,8 10 0,0
20.11.2017 02:00:00 1,8 -0,8 2 1 N 1027,6 9 0,0
20.11.2017 01:00:00 1,9 -1,2 2 1 E 1027,6 9 -
20.11.2017 00:00:00 2,7 -0,9 0 0 N 1027,3 9 0,0
19.11.2017 23:00:00 3,6 -0,2 2 1 E 1027,0 9 0,0
19.11.2017 22:00:00 4,7 0,1 0 0 N 1026,5 8 -
19.11.2017 21:00:00 5,4 0,4 2 1 S 1025,8 6 0,0
19.11.2017 20:00:00 7,1 0,5 0 0 N 1024,8 8 0,0
19.11.2017 19:00:00 9,7 1,1 2 1 WNW 1023,5 7 -
19.11.2017 18:00:00 13,7 2,3 2 1 ESE 1022,0 9 0,0
19.11.2017 17:00:00 17,5 1,9 4 2 NW 1021,0 6 0,0
19.11.2017 16:00:00 16,9 1,7 2 1 W 1021,0 7 -
19.11.2017 15:00:00 15,5 2,3 4 2 W 1021,9 7 0,0
19.11.2017 14:00:00 13,2 2,1 2 1 SW 1023,2 8 0,0
19.11.2017 13:00:00 10,3 1,9 4 2 W 1025,0 15 -
19.11.2017 12:00:00 7,6 1,4 4 2 WNW 1026,5 7 0,0
19.11.2017 11:00:00 5,0 0,6 4 2 WNW 1027,4 7 0,0
19.11.2017 10:00:00 3,5 0,4 0 0 N 1027,5 12 -
19.11.2017 09:00:00 -0,6 -1,4 2 1 ESE 1028,2 9 0,0
19.11.2017 08:00:00 -0,7 -1,8 2 1 ESE 1027,5 9 0,0
19.11.2017 07:00:00 -0,3 -1,7 2 1 N 1027,2 12 -
19.11.2017 06:00:00 0,2 -1,2 2 1 ENE 1026,7 9 0,0
19.11.2017 05:00:00 1,2 -1,0 2 1 SE 1026,4 9 0,0
19.11.2017 04:00:00 1,2 -0,7 4 2 SE 1026,5 9 -
19.11.2017 03:00:00 2,1 -0,7 2 1 NW 1025,9 9 0,0
19.11.2017 02:00:00 2,2 -0,4 2 1 SSE 1025,7 9 0,0

tt = Température de l'air
td = dewpoint
ff = Vitesse du vent
dd = Direction du vent
ppp = reduced air pressure
vv = visibility
rr = Quantités de précipitations

stations d'obs. à proximité